Location: Red Rock Farm
(35.2100°N, 97.2200°W)
Time: 22:06:34
(UTC-05:00)

ISS - All Passes

Search period start: 23 May 2015 00:00
Search period end: 02 June 2015 00:00
Orbit: 399 x 404 km, 51.6° (Epoch: 23 May)

Date Brightness Start Highest point End Pass type
(mag) Time Alt. Az. Time Alt. Az. Time Alt. Az.
23 May - 01:40:08 10° SW 01:43:21 72° NW 01:46:36 10° NE visible
23 May - 03:19:16 10° NW 03:20:18 11° NNW 03:21:16 10° N visible
23 May - 08:10:25 10° NNW 08:13:20 29° NE 08:16:16 10° E daylight
23 May - 09:47:03 10° WNW 09:49:39 21° SW 09:52:11 10° S daylight
24 May - 00:47:05 10° SSW 00:50:12 48° SE 00:53:21 10° ENE night (unlit)
24 May - 02:24:33 10° WNW 02:26:49 17° NNW 02:29:03 10° NNE visible
24 May - 07:17:41 10° NNW 07:19:57 17° NNE 07:22:15 10° ENE daylight
24 May - 08:53:24 10° WNW 08:56:34 47° SW 08:59:42 10° SSE daylight
24 May - 23:54:34 10° S 23:57:06 22° SE 23:59:41 10° ENE night (unlit)
25 May - 01:30:32 10° W 01:33:25 29° NW 01:36:19 10° NNE visible
25 May - 06:25:25 10° N 06:26:26 11° NNE 06:27:33 10° NE daylight
25 May - 08:00:07 10° NW 08:03:23 73° NE 08:06:38 10° SE daylight
25 May - 23:03:55 10° SE 23:04:02 10° SE 23:04:18 10° ESE night (unlit)
26 May - 00:36:54 10° WSW 00:40:07 59° NW 00:43:19 10° NE night (unlit)
26 May - 07:07:04 10° NNW 07:10:05 34° NE 07:13:07 10° ESE daylight
26 May - 08:44:00 10° W 08:46:20 18° SW 08:48:36 10° S daylight
26 May - 23:43:41 10° SW 23:46:52 60° SE 23:50:05 10° NE night (unlit)
27 May - 01:21:31 10° WNW 01:23:34 15° NNW 01:25:34 10° N visible
27 May - 06:14:13 10° NNW 06:16:40 20° NNE 06:19:10 10° E daylight
27 May - 07:50:08 10° WNW 07:53:12 38° SW 07:56:15 10° SSE daylight
27 May - 22:50:58 10° S 22:53:42 26° SE 22:56:29 10° ENE night (unlit)
28 May - 00:27:18 10° W 00:30:05 25° NNW 00:32:50 10° NNE visible
28 May - 05:21:42 10° N 05:23:08 12° NNE 05:24:38 10° NE visible
28 May - 06:56:43 10° NW 06:59:59 89° ENE 07:03:15 10° SE daylight
28 May - 21:59:14 10° SSE 22:00:33 12° SE 22:02:00 10° ESE night (unlit)
28 May - 23:33:31 10° WSW 23:36:40 48° NW 23:39:50 10° NE night (unlit)
29 May - 06:03:33 10° NW 06:06:39 40° NE 06:09:45 10° ESE daylight
29 May - 07:40:50 10° W 07:42:50 15° SW 07:44:44 10° SSW daylight
29 May - 22:40:08 10° SW 22:43:21 74° SE 22:46:36 10° NE night (unlit)
30 May - 00:18:20 10° WNW 00:20:08 14° NNW 00:21:51 10° N visible
30 May - 05:10:34 10° NNW 05:13:12 22° NNE 05:15:51 10° E visible
30 May - 06:46:42 10° WNW 06:49:39 32° SW 06:52:35 10° SSE daylight
30 May - 21:47:12 10° SSW 21:50:06 31° SE 21:53:02 10° ENE visible
30 May - 23:23:55 10° W 23:26:33 22° NNW 23:29:10 10° NNE visible
31 May - 04:17:53 10° N 04:19:37 14° NNE 04:21:24 10° ENE visible
31 May - 05:53:07 10° NW 05:56:23 75° SW 05:59:38 10° SE daylight
31 May - 20:55:04 10° SSE 20:56:53 15° SE 20:58:50 10° E daylight
31 May - 22:29:58 10° WSW 22:33:04 41° NW 22:36:09 10° NE visible
01 Jun - 04:59:51 10° NW 05:03:01 48° NE 05:06:11 10° ESE visible
01 Jun - 06:37:37 10° W 06:39:09 12° SW 06:40:33 10° SSW daylight
01 Jun - 21:36:26 10° SW 21:39:40 89° E 21:42:55 10° NE visible
01 Jun - 23:15:01 10° NW 23:16:30 12° NNW 23:17:56 10° N visible
